Flag for Saudi Arabia Weather past 2 weeks in Riyadh, Saudi Arabia

Now
66 °F

Clear.


Feels Like: 66 °F
Forecast: 48 / 76 °F
Wind: 8 mph from Southeast

Location: Riyadh Airport

Current Time: Jan 26, 2015 at 8:22:20 PM

Latest Report: Jan 26, 2015 at 8:00 PM


Visibility: 10 mi

Pressure: 30.18 "Hg

Humidity: 21%

Dew point: 25 °F

Location of RiyadhLocation

Historic Weather in Riyadh — Graph

°F

Riyadh temperature yesterday

Maximum temperature yesterday: 73 °F (at 3:00 PM)
Minimum temperature yesterday: 48 °F (at 7:00 AM)
Average temperature yesterday: 63 °F

Past Weeks' High & Low Weather Summary

 TemperatureHumidityPressure
High75 °F (Jan 16, 3:00 PM)94% (Jan 18, 4:00 AM)30.42 "Hg (Jan 18, 4:00 AM)
Low41 °F (Jan 13, 7:00 AM)12% (Jan 23, 5:00 PM)30.04 "Hg (Jan 16, 3:00 PM)
Average58 °F35%30.21 "Hg
* Reported Jan 11 6:00 PM — Jan 26 6:00 PM, Riyadh, Weather by CustomWeather, © 2014

Note: Actual official high and low records may vary slightly from our data, if they occured in-between our weather recording intervals... More about our weather records

Advertising

Riyadh weather history for previous 24 hours

 ConditionsComfort  
Time TempWeatherWind HumidityBarometerVisibility
6:00 PM
Jan 26
70 °FClear.12 mph18%30.18 "Hg10 mi
1:00 PM73 °FSunny.10 mph15%30.18 "Hg10 mi
12:00 PM72 °FSunny.8 mph16%30.24 "Hg10 mi
10:00 AM64 °FSunny.7 mph21%30.27 "Hg10 mi
9:00 AM61 °FSunny.7 mph25%30.27 "Hg10 mi
8:00 AM57 °FSunny.6 mph29%30.27 "Hg10 mi
7:00 AM54 °FSunny.5 mph30%30.30 "Hg10 mi
6:00 AM52 °FClear.3 mph32%30.27 "Hg10 mi
5:00 AM50 °FClear.3 mph32%30.24 "Hg10 mi
4:00 AM52 °FClear.No wind32%30.24 "Hg10 mi
1:00 AM57 °FClear.5 mph27%30.27 "Hg10 mi
12:00 AM59 °FClear.3 mph25%30.27 "Hg10 mi
11:00 PM
Jan 25
61 °FClear.8 mph23%30.27 "Hg10 mi
10:00 PM61 °FClear.7 mph23%30.30 "Hg10 mi
9:00 PM63 °FClear.6 mph22%30.27 "Hg10 mi
8:00 PM64 °FClear.5 mph21%30.27 "Hg10 mi
Weather by CustomWeather, © 2014

See weather overviewHow to use our weather pages